When you browse on this site, cookies collect data to enhance your experience and personalize the content and advertising you see.
Visit our Privacy Policy to learn more. By continuing to use the site, you agree to this use of cookies and data.
EN

Hourly Weather Gabrovo

Today, 9 July, Thursday

Time Temperature Precipitation Wind Pressure Humidity
00:00 +14°C° 0 mm 1 mps 703 mmHg 80%
01:00 +14°C° 0 mm 1 mps 704 mmHg 80%
02:00 +14°C° 0 mm 1 mps 704 mmHg 81%
03:00 +13°C° 0 mm 1 mps 704 mmHg 82%
04:00 +12°C° 0 mm 0 mps 704 mmHg 83%
05:00 +12°C° 0 mm 0 mps 703 mmHg 84%
06:00 +14°C° 0 mm 0 mps 704 mmHg 78%
07:00 +16°C° 0 mm 0 mps 704 mmHg 72%
08:00 +18°C° 0 mm 0 mps 705 mmHg 66%
09:00 +19°C° 0 mm 0 mps 705 mmHg 62%
10:00 +21°C° 0 mm 0 mps 705 mmHg 58%
11:00 +24°C° 0 mm 1 mps 706 mmHg 54%
12:00 +25°C° 0 mm 1 mps 705 mmHg 52%
13:00 +25°C° 0 mm 1 mps 705 mmHg 51%
14:00 +26°C° 0 mm 1 mps 705 mmHg 49%
15:00 +26°C° 0 mm 1 mps 705 mmHg 50%
16:00 +25°C° 0 mm 2 mps 705 mmHg 51%
17:00 +25°C° 0 mm 2 mps 704 mmHg 52%
18:00 +23°C° 0 mm 1 mps 704 mmHg 58%
19:00 +21°C° 0 mm 1 mps 704 mmHg 64%
20:00 +20°C° 0 mm 1 mps 704 mmHg 70%
21:00 +19°C° 0 mm 1 mps 704 mmHg 72%
22:00 +18°C° 0 mm 1 mps 704 mmHg 73%
23:00 +16°C° 0 mm 1 mps 704 mmHg 75%

Tomorrow, 10 July, Friday

Time Temperature Precipitation Wind Pressure Humidity
00:00 +16°C° 0 mm 1 mps 704 mmHg 76%
01:00 +15°C° 0 mm 1 mps 704 mmHg 77%
02:00 +15°C° 0 mm 1 mps 704 mmHg 78%
03:00 +15°C° 0 mm 1 mps 704 mmHg 78%
04:00 +14°C° 0 mm 1 mps 704 mmHg 78%
05:00 +13°C° 0 mm 0 mps 704 mmHg 78%
06:00 +15°C° 0 mm 0 mps 704 mmHg 73%
07:00 +19°C° 0 mm 1 mps 705 mmHg 67%
08:00 +21°C° 0 mm 1 mps 705 mmHg 62%
09:00 +23°C° 0 mm 1 mps 705 mmHg 58%
10:00 +24°C° 0 mm 1 mps 705 mmHg 54%
11:00 +25°C° 0 mm 2 mps 705 mmHg 50%
12:00 +26°C° 0 mm 2 mps 705 mmHg 49%
13:00 +27°C° 0 mm 2 mps 705 mmHg 48%
14:00 +27°C° 0 mm 3 mps 705 mmHg 47%
15:00 +27°C° 0 mm 3 mps 704 mmHg 49%
16:00 +26°C° 0 mm 3 mps 704 mmHg 51%
17:00 +26°C° 0 mm 3 mps 704 mmHg 54%
18:00 +24°C° 0 mm 3 mps 704 mmHg 60%
19:00 +21°C° 0 mm 2 mps 703 mmHg 66%
20:00 +19°C° 0 mm 2 mps 703 mmHg 72%
21:00 +18°C° 0 mm 2 mps 703 mmHg 75%
22:00 +18°C° 0 mm 1 mps 704 mmHg 78%
23:00 +16°C° 0 mm 1 mps 704 mmHg 81%

Day after tomorrow, 11 July, Saturday

Time Temperature Precipitation Wind Pressure Humidity
00:00 +16°C° 0 mm 1 mps 703 mmHg 82%
01:00 +15°C° 0 mm 1 mps 703 mmHg 84%
02:00 +15°C° 0 mm 1 mps 703 mmHg 86%
03:00 +15°C° 0 mm 1 mps 703 mmHg 87%
04:00 +14°C° 0 mm 1 mps 703 mmHg 88%
05:00 +14°C° 0 mm 1 mps 702 mmHg 88%
06:00 +16°C° 0 mm 1 mps 703 mmHg 82%
07:00 +17°C° 0 mm 0 mps 703 mmHg 76%
08:00 +19°C° 0 mm 0 mps 703 mmHg 69%
09:00 +22°C° 0 mm 1 mps 704 mmHg 64%
10:00 +24°C° 0 mm 1 mps 704 mmHg 58%
11:00 +25°C° 0 mm 1 mps 704 mmHg 52%
12:00 +26°C° 0 mm 2 mps 703 mmHg 50%
13:00 +26°C° 0 mm 2 mps 703 mmHg 49%
14:00 +27°C° 0 mm 2 mps 703 mmHg 47%
15:00 +27°C° 0 mm 2 mps 702 mmHg 49%
16:00 +27°C° 0 mm 2 mps 702 mmHg 51%
17:00 +26°C° 0 mm 2 mps 702 mmHg 54%
18:00 +25°C° 0 mm 2 mps 702 mmHg 61%
19:00 +23°C° 0 mm 2 mps 701 mmHg 68%
20:00 +20°C° 0 mm 2 mps 701 mmHg 75%
21:00 +19°C° 0 mm 2 mps 701 mmHg 78%
22:00 +19°C° 0 mm 1 mps 701 mmHg 81%
23:00 +18°C° 0 mm 1 mps 701 mmHg 83%

12 July, Sunday

Time Temperature Precipitation Wind Pressure Humidity
00:00 +18°C° 0 mm 1 mps 701 mmHg 84%
01:00 +16°C° 0 mm 1 mps 701 mmHg 85%
02:00 +16°C° 0 mm 1 mps 700 mmHg 85%
03:00 +16°C° 0 mm 1 mps 700 mmHg 86%
04:00 +16°C° 0 mm 1 mps 700 mmHg 86%
05:00 +15°C° 0 mm 1 mps 700 mmHg 87%
06:00 +18°C° 0 mm 1 mps 701 mmHg 80%
07:00 +20°C° 0 mm 1 mps 701 mmHg 74%
08:00 +22°C° 0 mm 1 mps 701 mmHg 67%
09:00 +24°C° 0 mm 1 mps 702 mmHg 62%
10:00 +25°C° 0 mm 2 mps 702 mmHg 57%
11:00 +27°C° 0 mm 2 mps 702 mmHg 52%
12:00 +27°C° 0 mm 2 mps 702 mmHg 52%
13:00 +27°C° 0 mm 2 mps 702 mmHg 51%
14:00 +27°C° 0 mm 3 mps 702 mmHg 51%
15:00 +27°C° 0.1 mm 3 mps 701 mmHg 54%
16:00 +27°C° 0.1 mm 3 mps 701 mmHg 57%
17:00 +26°C° 0.1 mm 3 mps 701 mmHg 60%
18:00 +25°C° 0.1 mm 3 mps 701 mmHg 66%
19:00 +22°C° 0.1 mm 3 mps 701 mmHg 72%
20:00 +20°C° 0.1 mm 3 mps 701 mmHg 79%
21:00 +19°C° 0 mm 3 mps 701 mmHg 80%
22:00 +18°C° 0 mm 3 mps 701 mmHg 82%
23:00 +17°C° 0 mm 2 mps 701 mmHg 83%

13 July, Monday

Time Temperature Precipitation Wind Pressure Humidity
00:00 +16°C° 0 mm 2 mps 701 mmHg 83%
01:00 +16°C° 0 mm 2 mps 701 mmHg 82%
02:00 +15°C° 0 mm 2 mps 701 mmHg 81%
03:00 +15°C° 0 mm 2 mps 701 mmHg 81%
04:00 +14°C° 0 mm 2 mps 700 mmHg 81%
05:00 +14°C° 0 mm 2 mps 700 mmHg 81%
06:00 +15°C° 0 mm 2 mps 701 mmHg 76%
07:00 +17°C° 0 mm 2 mps 701 mmHg 71%
08:00 +18°C° 0 mm 2 mps 702 mmHg 67%
09:00 +19°C° 0 mm 2 mps 702 mmHg 60%
10:00 +21°C° 0 mm 2 mps 702 mmHg 54%
11:00 +23°C° 0 mm 2 mps 703 mmHg 47%
12:00 +22°C° 0 mm 3 mps 703 mmHg 47%
13:00 +24°C° 0 mm 3 mps 702 mmHg 48%
14:00 +23°C° 0 mm 4 mps 702 mmHg 48%
15:00 +22°C° 0 mm 4 mps 702 mmHg 51%
16:00 +22°C° 0 mm 4 mps 702 mmHg 54%
17:00 +21°C° 0 mm 4 mps 702 mmHg 57%
18:00 +19°C° 0 mm 3 mps 702 mmHg 63%
19:00 +17°C° 0 mm 3 mps 702 mmHg 70%
20:00 +16°C° 0 mm 2 mps 702 mmHg 77%
21:00 +15°C° 0 mm 2 mps 702 mmHg 78%
22:00 +14°C° 0 mm 1 mps 702 mmHg 79%
23:00 +14°C° 0 mm 1 mps 702 mmHg 80%

14 July, Tuesday

Time Temperature Precipitation Wind Pressure Humidity
00:00 +13°C° 0 mm 1 mps 702 mmHg 81%
01:00 +13°C° 0 mm 1 mps 702 mmHg 82%
02:00 +13°C° 0 mm 1 mps 702 mmHg 83%
03:00 +13°C° 0 mm 1 mps 702 mmHg 84%
04:00 +12°C° 0 mm 1 mps 702 mmHg 84%
05:00 +12°C° 0 mm 1 mps 702 mmHg 85%
06:00 +13°C° 0 mm 0 mps 702 mmHg 78%
07:00 +15°C° 0 mm 0 mps 703 mmHg 71%
08:00 +17°C° 0 mm 0 mps 703 mmHg 65%
09:00 +20°C° 0 mm 1 mps 703 mmHg 60%
10:00 +21°C° 0 mm 1 mps 704 mmHg 55%
11:00 +23°C° 0 mm 1 mps 704 mmHg 51%
12:00 +23°C° 0 mm 1 mps 704 mmHg 48%
13:00 +24°C° 0 mm 2 mps 703 mmHg 46%
14:00 +25°C° 0 mm 2 mps 703 mmHg 43%
15:00 +25°C° 0 mm 2 mps 703 mmHg 44%
16:00 +24°C° 0 mm 2 mps 703 mmHg 45%
17:00 +24°C° 0 mm 2 mps 703 mmHg 46%
18:00 +21°C° 0 mm 2 mps 703 mmHg 52%
19:00 +19°C° 0 mm 2 mps 702 mmHg 59%
20:00 +18°C° 0 mm 2 mps 702 mmHg 65%
21:00 +17°C° 0 mm 2 mps 702 mmHg 69%
22:00 +16°C° 0 mm 2 mps 703 mmHg 72%
23:00 +15°C° 0 mm 2 mps 703 mmHg 75%
Show more